Home > Weather > Qatif > Past weeks

Flag for Saudi Arabia Weather for the Past 2 Weeks in Qatif, Saudi Arabia

Now
70 °F

Clear.


Feels Like: 70 °F
Forecast: 60 / 74 °F
Wind: 15 mph from Southeast

Location: King Fahd International Airport

Current Time: Feb 7, 2016 at 9:20:10 PM

Latest Report: Feb 7, 2016 at 9:00 PM


Visibility: 10 mi

Pressure: 29.92 "Hg

Humidity: 27%

Dew point: 34 °F

Location of QatifLocation

Historic Weather in Qatif — Graph

°F

Qatif Temperature Yesterday

Maximum temperature yesterday: 73 °F (at 3:00 PM)
Minimum temperature yesterday: 45 °F (at 5:00 AM)
Average temperature yesterday: 58 °F

High & Low Weather Summary for the Past Weeks

 TemperatureHumidityPressure
High81 °F (Jan 24, 2:00 PM)88% (Jan 24, 8:00 AM)30.39 "Hg (Jan 24, 8:00 AM)
Low41 °F (Jan 29, 4:00 AM)13% (Jan 30, 2:00 PM)29.86 "Hg (Feb 7, 4:00 PM)
Average58 °F48%30.15 "Hg
* Reported Jan 23 8:00 PM — Feb 7 8:00 PM, Qatif, Weather by CustomWeather, © 2016

Note: Actual official high and low records may vary slightly from our data, if they occured in-between our weather recording intervals... More about our weather records

Advertising

Qatif Weather History for the Previous 24 Hours

 ConditionsComfort  
Time TempWeatherWind HumidityBarometerVisibility
8:00 PM
Sun, Feb 7
68 °FClear.17 mph35%29.89 "Hg10 mi
7:00 PM68 °FClear.17 mph35%29.89 "Hg10 mi
6:00 PM72 °FClear.20 mph29%29.89 "Hg4 mi
5:00 PM73 °FSunny.18 mph29%29.86 "Hg4 mi
4:00 PM75 °FClear.17 mph25%29.86 "Hg4 mi
3:00 PM77 °FClear.20 mph22%29.89 "Hg4 mi
2:00 PM79 °FSunny.18 mph13%29.89 "Hg4 mi
1:00 PM77 °FClear.22 mph17%29.92 "Hg5 mi
12:00 PM73 °FSunny.21 mph17%29.95 "Hg10 mi
11:00 AM70 °FSunny.21 mph21%29.98 "Hg10 mi
10:00 AM66 °FSunny.22 mph28%30.01 "Hg10 mi
9:00 AM61 °FSunny.17 mph29%30.04 "Hg10 mi
8:00 AM55 °FSunny.14 mph36%30.01 "Hg10 mi
7:00 AM52 °FSunny.14 mph54%29.98 "Hg10 mi
6:00 AM52 °FClear.10 mph67%29.95 "Hg10 mi
5:00 AM52 °FClear.12 mph62%29.95 "Hg10 mi
4:00 AM54 °FClear.12 mph63%29.95 "Hg10 mi
3:00 AM55 °FClear.14 mph51%29.95 "Hg10 mi
2:00 AM54 °FClear.13 mph51%29.98 "Hg10 mi
1:00 AM52 °FClear.9 mph62%29.98 "Hg10 mi
12:00 AM54 °FClear.7 mph67%29.98 "Hg10 mi
11:00 PM
Sat, Feb 6
55 °FClear.10 mph63%30.01 "Hg10 mi
10:00 PM57 °FClear.13 mph55%30.01 "Hg10 mi
9:00 PM59 °FClear.12 mph45%30.01 "Hg10 mi
Weather by CustomWeather, © 2016

See weather overviewHow to use our weather pages